Date String (YYYY-MM-DD hh:mm:ss) UTC,Instrument flags,Ambient pressure (hPa),Sample flow (lpm),Bypass flow (lpm),Sample temperature (°C),Ambient temperature (°C),ASC tube jacket temperature (°C),LED temperature (°C),Box temperature (°C),Sample RH (%),Span deviation,Mass concentration (μg/m³),Mass concentration (μg/m³),Mass concentration (μg/m³)
DateTimeUTC,F1_M11,P_M11,Q1_M11,Q2_M11,T1_M11,T2_M11,T3_M11,T4_M11,T5_M11,U1_M11,ZSPAN_M11,X0_M11,X2_M11,X1_M11
2022-04-13 15:00:00,,0819.4,5.02,0.00,21.6,22.9,00.0,30.5,23.6,07.6,0000.0,0009.68,0005.55,0005.12
2022-04-13 15:01:00,,0819.3,4.99,0.00,21.7,22.9,00.0,30.6,23.6,07.5,0000.0,0009.81,0005.59,0005.16
2022-04-13 15:02:00,,0819.3,5.00,0.00,21.7,22.4,00.0,30.6,23.5,07.6,0000.0,0010.15,0005.61,0005.19
2022-04-13 15:03:00,,0819.2,4.99,0.00,21.6,21.8,00.0,30.6,23.3,07.6,0000.0,0009.76,0005.66,0005.22
2022-04-13 15:04:00,,0819.2,5.01,0.00,21.6,21.5,00.0,30.6,23.2,07.7,0000.0,0009.00,0005.69,0005.26
2022-04-13 15:05:00,,0819.3,4.98,0.00,21.5,21.2,00.0,30.6,23.1,07.9,0000.0,0008.68,0005.70,0005.27
2022-04-13 15:06:00,,0819.2,5.00,0.00,21.5,21.1,00.0,30.5,23.0,07.7,0000.0,0008.90,0005.74,0005.30
2022-04-13 15:07:00,,0819.2,5.00,0.00,21.4,20.9,00.0,30.5,23.0,07.8,0000.0,0009.17,0005.74,0005.33
2022-04-13 15:08:00,,0819.2,5.00,0.00,21.4,20.7,00.0,30.5,22.9,07.9,0000.0,0009.17,0005.77,0005.36
2022-04-13 15:09:00,,0819.2,5.00,0.00,21.3,20.6,00.0,30.5,22.8,07.9,0000.0,0009.24,0005.80,0005.38
2022-04-13 15:10:00,,0819.3,4.99,0.00,21.3,20.4,00.0,30.5,22.7,08.0,0000.0,0009.24,0005.81,0005.40
2022-04-13 15:11:00,,0819.3,5.00,0.00,21.2,20.6,00.0,30.4,22.7,08.0,0000.0,0009.32,0005.82,0005.41
2022-04-13 15:12:00,,0819.2,5.02,0.00,21.3,21.8,00.0,30.5,23.1,08.0,0000.0,0009.30,0005.82,0005.43
2022-04-13 15:13:00,,0819.2,5.00,0.00,21.6,23.1,00.0,30.5,23.5,07.9,0000.0,0008.91,0005.86,0005.45
2022-04-13 15:14:00,,0819.2,5.00,0.00,21.7,23.5,00.0,30.6,23.7,07.8,0000.0,0009.03,0005.88,0005.47
2022-04-13 15:15:00,,0819.2,4.99,0.00,21.8,23.0,00.0,30.6,23.6,07.9,0000.0,0009.08,0005.90,0005.49
2022-04-13 15:16:00,,0819.3,5.00,0.00,21.7,22.4,00.0,30.6,23.4,08.0,0000.0,0009.14,0005.91,0005.51
2022-04-13 15:17:00,,0819.2,5.01,0.00,21.6,21.8,00.0,30.6,23.2,08.0,0000.0,0009.19,0005.92,0005.52
2022-04-13 15:18:00,,0819.2,4.99,0.00,21.5,21.4,00.0,30.6,23.0,08.0,0000.0,0008.85,0005.96,0005.52
2022-04-13 15:19:00,,0819.2,5.00,0.00,21.4,21.0,00.0,30.6,22.9,08.1,0000.0,0009.42,0006.00,0005.52
2022-04-13 15:20:00,,0819.2,5.00,0.00,21.4,20.7,00.0,30.5,22.8,08.1,0000.0,0009.50,0006.00,0005.53
2022-04-13 15:21:00,,0819.2,5.01,0.00,21.3,20.4,00.0,30.5,22.7,08.2,0000.0,0009.51,0006.02,0005.55
2022-04-13 15:22:00,,0819.2,5.00,0.00,21.2,20.3,00.0,30.5,22.7,08.3,0000.0,0009.40,0006.02,0005.57
2022-04-13 15:23:00,,0819.2,4.99,0.00,21.2,20.3,00.0,30.4,22.6,08.3,0000.0,0009.42,0006.05,0005.57
2022-04-13 15:24:00,,0819.3,5.01,0.00,21.1,20.2,00.0,30.4,22.6,08.2,0000.0,0009.49,0006.05,0005.56
2022-04-13 15:25:00,,0819.2,4.99,0.00,21.2,21.3,00.0,30.4,22.9,08.2,0000.0,0009.44,0006.04,0005.55
2022-04-13 15:26:00,,0819.3,5.02,0.00,21.4,22.6,00.0,30.5,23.3,08.2,0000.0,0009.81,0006.04,0005.54
2022-04-13 15:27:00,,0819.2,4.98,0.00,21.6,22.9,00.0,30.5,23.5,08.1,0000.0,0009.95,0006.03,0005.54
2022-04-13 15:28:00,,0819.2,5.01,0.00,21.6,22.5,00.0,30.5,23.4,08.2,0000.0,0009.94,0006.04,0005.53
2022-04-13 15:29:00,,0819.2,5.00,0.00,21.5,22.0,00.0,30.5,23.2,08.5,0000.0,0010.38,0006.09,0005.56
2022-04-13 15:30:00,,0819.1,4.99,0.00,21.5,21.7,00.0,30.5,23.1,08.5,0000.0,0010.01,0006.08,0005.56
2022-04-13 15:31:00,,0819.3,5.01,0.00,21.5,21.4,00.0,30.5,23.1,08.6,0000.0,0009.86,0006.08,0005.56
2022-04-13 15:32:00,,0819.2,5.00,0.00,21.5,21.1,00.0,30.5,23.1,08.5,0000.0,0010.68,0006.11,0005.55
2022-04-13 15:33:00,,0819.2,5.00,0.00,21.4,20.9,00.0,30.5,23.0,08.4,0000.0,0010.80,0006.14,0005.54
2022-04-13 15:34:00,,0819.2,5.01,0.00,21.4,20.7,00.0,30.5,22.9,08.4,0000.0,0010.79,0006.13,0005.55
2022-04-13 15:35:00,,0819.2,5.00,0.00,21.3,20.6,00.0,30.5,22.9,08.4,0000.0,0010.88,0006.17,0005.57
2022-04-13 15:36:00,,0819.2,5.00,0.00,21.3,20.6,00.0,30.5,22.9,08.4,0000.0,0010.82,0006.19,0005.59
2022-04-13 15:37:00,,0819.2,5.00,0.00,21.3,20.6,00.0,30.4,22.9,08.3,0000.0,0010.50,0006.24,0005.61
2022-04-13 15:38:00,,0819.2,5.00,0.00,21.3,20.5,00.0,30.4,22.8,08.4,0000.0,0010.42,0006.28,0005.63
2022-04-13 15:39:00,,0819.2,5.00,0.00,21.3,20.5,00.0,30.4,22.8,08.4,0000.0,0010.35,0006.28,0005.65
2022-04-13 15:40:00,,0819.3,5.00,0.00,21.2,20.5,00.0,30.4,22.8,08.3,0000.0,0009.85,0006.23,0005.64
2022-04-13 15:41:00,,0819.3,5.00,0.00,21.3,21.5,00.0,30.4,23.1,08.2,0000.0,0009.82,0006.24,0005.65
2022-04-13 15:42:00,,0819.4,5.02,0.00,21.5,22.7,00.0,30.5,23.5,08.2,0000.0,0009.97,0006.27,0005.66
2022-04-13 15:43:00,,0819.3,4.99,0.00,21.7,23.0,00.0,30.5,23.6,08.0,0000.0,0009.47,0006.32,0005.69
2022-04-13 15:44:00,,0819.2,5.01,0.00,21.7,22.6,00.0,30.5,23.5,07.9,0000.0,0009.78,0006.31,0005.70
2022-04-13 15:45:00,,0819.3,5.00,0.00,21.7,22.2,00.0,30.6,23.4,08.0,0000.0,0009.82,0006.31,0005.69
2022-04-13 15:46:00,,0819.1,4.99,0.00,21.6,21.9,00.0,30.6,23.3,08.0,0000.0,0009.68,0006.28,0005.68
2022-04-13 15:47:00,,0819.1,5.01,0.00,21.6,21.6,00.0,30.6,23.3,08.0,0000.0,0009.73,0006.25,0005.66
2022-04-13 15:48:00,,0819.2,5.01,0.00,21.6,21.3,00.0,30.6,23.2,08.1,0000.0,0009.98,0006.19,0005.63
2022-04-13 15:49:00,,0819.2,5.00,0.00,21.6,21.1,00.0,30.6,23.2,08.0,0000.0,0010.16,0006.13,0005.57
2022-04-13 15:50:00,,0819.2,4.99,0.00,21.6,21.0,00.0,30.6,23.2,07.7,0000.0,0010.15,0006.04,0005.50
2022-04-13 15:51:00,,0819.2,4.99,0.00,21.6,21.0,00.0,30.5,23.3,07.8,0000.0,0010.24,0005.96,0005.40
2022-04-13 15:52:00,,0819.2,5.00,0.00,21.6,21.0,00.0,30.5,23.3,07.5,0000.0,0010.19,0005.86,0005.30
2022-04-13 15:53:00,,0819.3,5.00,0.00,21.6,21.0,00.0,30.6,23.3,07.5,0000.0,0009.95,0005.73,0005.19
2022-04-13 15:54:00,,0819.1,5.00,0.00,21.6,21.0,00.0,30.6,23.3,07.8,0000.0,0009.54,0005.57,0005.08
2022-04-13 15:55:00,,0818.9,5.00,0.00,21.6,21.0,00.0,30.6,23.3,06.8,0000.0,0009.06,0005.42,0004.94
2022-04-13 15:56:00,,0819.0,5.00,0.00,21.6,21.0,00.0,30.6,23.3,06.1,0000.0,0008.76,0005.19,0004.72
2022-04-13 15:57:00,,0818.9,5.00,0.00,21.6,21.0,00.0,30.6,23.3,05.4,0000.0,0008.59,0004.88,0004.41
2022-04-13 15:58:00,,0819.0,5.00,0.00,21.6,20.9,00.0,30.6,23.2,05.1,0000.0,0008.57,0004.56,0004.10
2022-04-13 15:59:00,,0819.0,4.99,0.00,21.5,20.8,00.0,30.5,23.1,06.5,0000.0,0008.79,0004.35,0003.90
